Home   Weather   Langesund   Past weeks
Flag for Norway

Past Weather in Langesund, Norway — Yesterday and Last 2 Weeks

Now
58 °F

Refreshingly cool.


Feels Like: 59 °F
Forecast: 61 / 42 °F
Wind: 3 mph from Northwest

Location: Jomfruland Fyr

Current Time: Sep 17, 2019 at 7:07:07 pm

Latest Report: Sep 17, 2019 at 6:00 pm


Visibility: N/A

Pressure: 29.78 "Hg

Humidity: 34%

Dew Point: 30 °F

Location of LangesundLocation

Past Weather in Langesund — Graph

°F

Langesund Temperature Yesterday

Maximum temperature yesterday: 61 °F (at 2:00 pm)
Minimum temperature yesterday: 51 °F (at 6:00 am)
Average temperature yesterday: 55 °F

High & Low Weather Summary for the Past Weeks

 TemperatureHumidityPressure
High69 °F (Sep 3, 5:00 pm)100% (Sep 7, 11:00 am)30.31 "Hg (Sep 7, 11:00 am)
Low47 °F (Sep 17, 7:00 am)31% (Sep 17, 5:00 pm)29.50 "Hg (Sep 4, 11:00 pm)
Average56 °F73%29.86 "Hg
* Reported Sep 2 5:00 pm — Sep 17 5:00 pm, Langesund. Weather by CustomWeather, © 2019

Note: Actual official high and low records may vary slightly from our data, if they occured in-between our weather recording intervals... More about our weather records

Advertising

Langesund Weather History for the Previous 24 Hours

Scroll right to see more
 ConditionsComfort  
Time TempWeatherWind HumidityBarometerVisibility
5:00 pm
Tue, Sep 17
59 °FRefreshingly cool.5 mph31%29.75 "HgN/A
4:00 pm59 °FRefreshingly cool.5 mph32%29.73 "HgN/A
3:00 pm58 °FRefreshingly cool.7 mph34%29.71 "HgN/A
2:00 pm56 °FRefreshingly cool.7 mph37%29.70 "HgN/A
1:00 pm56 °FRefreshingly cool.8 mph42%29.67 "HgN/A
12:00 pm54 °FCool.6 mph46%29.66 "HgN/A
11:00 am53 °FCool.7 mph48%29.63 "HgN/A
10:00 am51 °FCool.5 mph52%29.62 "HgN/A
9:00 am48 °FCool.3 mph59%29.62 "HgN/A
8:00 am48 °FCool.5 mph61%29.61 "HgN/A
7:00 am47 °FCool.7 mph61%29.60 "HgN/A
6:00 am48 °FCool.7 mph61%29.60 "HgN/A
5:00 am48 °FCool.10 mph59%29.61 "HgN/A
4:00 am49 °FCool.13 mph62%29.62 "HgN/A
3:00 am49 °FCool.13 mph67%29.63 "HgN/A
2:00 am50 °FCool.9 mph74%29.66 "HgN/A
1:00 am50 °FCool.10 mph76%29.67 "HgN/A
12:00 am51 °FCool.8 mph71%29.69 "HgN/A
11:00 pm
Mon, Sep 16
52 °FCool.8 mph68%29.70 "HgN/A
10:00 pm53 °FCool.9 mph70%29.72 "HgN/A
9:00 pm53 °FCool.6 mph64%29.74 "HgN/A
8:00 pm54 °FCool.8 mph64%29.75 "HgN/A
7:00 pm57 °FRefreshingly cool.9 mph57%29.75 "HgN/A
Weather by CustomWeather, © 2019

See weather overview